IUS DEB, 43363

Orbit data source: Space-Track

IUS DEB, 43363 is space debris in LEO originally from a launch on Fri, 23 Jul 1999 UTC launched from the Air Force Eastern Test Range (AFETR). Debris objects in space refer to the collection of defunct objects orbiting the Earth. Examples of debris include non-operational satellites, rocket bodies, and fragments generated from explosions, collisions, or faulty payload assembly.

Loading next visibility...
Identifier
43363, 1999-040L
Orbit
LEO
Country
Flag of USUS
Related business
Manufacturer
Boeing/Kent
Mission
Spacecraft
Bus & Motor
Unknown
Mass
Unknown
Launch date (UTC)
1999-07-23 (26 years ago)
Launch vehicle
Unknown
Launch site
Air Force Eastern Test Range (AFETR)
Object type
Payload
Rocket body
Debris
Shape & HBR
Unknown
Radar Cross Section
Small (<0.1 m²)

Expand to show TLE details & history
Last TLE update: 1 year ago

TLE from 1 year ago
0 IUS DEB
1 43363U 99040L   24207.46150719  .00070672  00000-0  59772-1 0  9992
2 43363  28.2626 265.9531 2342506 219.5053 120.9151 10.05846354  3126
Epoch: 2024-07-25T11:04Z
TLE epoch observation values (Epoch: 2024-07-25T11:04:34.221Z)
Latitude
-0°
Longitude
156.15964°
Altitude
4,079.5 km
Speed
5.682 km/s
True Right ascension
17h 43m 48s
True Declination
0° 00' 00"
Sunlit
Object was in daylight at epoch
Visualization orbit readout
Latitude
Unknown
Longitude
Unknown
Altitude
Unknown
Speed
Unknown
Apparent Right ascension
Unknown
Apparent Declination
Unknown
Sunlit
N/A
Visualization observer readout
Local Sidereal Time
04:32:37
Azimuth
Unknown
Elevation
Unknown
Doppler factor
Unknown
Orbital elements
Apogee altitude
4,815.017 km
Perigee altitude
566.28 km
Semi-major axis
9,068.786 km
Eccentricity
0.23425
Inclination
28.2626°
RAAN
265.9531°
Arg. of periapsis
219.5053°
True anomaly
140.54031°
Mean anomaly
120.9151°
Eccentric anomaly
131.03856°
Mean motion
2.51316 °/min
Orbital period
143.25 mins
BSTAR
0.059772
Loading maneuver chart data...
Computing Atmospheric mass density...
Loading historical data...
Loading historical data...
Loading historical data...
Loading historical data...
Loading historical data...
Loading historical data...
Loading historical data...

Documentation

Showing up to 5 results
|